This demonstration page uses our WeatherBlox Daily Observations layout. Learn more.

Left ArrowRight Arrow

34.74481, -87.66753

Hourly Observations for February 25, 2020

Temp ( °F °C ) Dew Point ( °F °C ) Humidity (%) Winds ( mph kmh ) Pressure ( in mb ) Visibility ( mi km ) Precip ( " mm )
12:53 am 00:53 Cloudy 55 12.8 51 10.6 87 87 W 9 15 29.72 1006 10 16 0.00 0.00
1:43 am 01:43 Mostly Cloudy 54 12.2 49 9.4 83 83 W 9 15 29.74 1007 10 16 0.00 0.00
1:53 am 01:53 Mostly Cloudy 53 11.7 48 8.9 83 83 W 7 11 29.73 1007 10 16 0.00 0.00
2:15 am 02:15 Mostly Clear 52 11.1 48 8.9 86 86 WSW 8 13 29.75 1007 10 16 0.00 0.00
2:53 am 02:53 Clear 51 10.6 47 8.3 86 86 W 10 17 29.74 1007 10 16 0.00 0.00
3:53 am 03:53 Clear 50 10 45 7.2 83 83 WSW 8 13 29.75 1007 10 16 0.00 0.00
4:53 am 04:53 Clear 49 9.4 44 6.7 83 83 W 3 6 29.76 1008 10 16 0.00 0.00
5:53 am 05:53 Clear 45 7.2 42 5.6 90 90 SSW 6 9 29.77 1008 10 16 0.00 0.00
6:53 am 06:53 Sunny 44 6.7 42 5.6 93 93 Calm 29.80 1009 10 16 0.00 0.00
7:53 am 07:53 Sunny 51 10.6 46 7.8 83 83 WSW 7 11 29.82 1010 10 16 0.00 0.00
8:53 am 08:53 Mostly Sunny 55 12.8 47 8.3 74 74 WNW 10 17 29.83 1010 10 16 0.00 0.00
9:53 am 09:53 Cloudy 55 12.8 46 7.8 72 72 W 6 9 29.84 1011 10 16 0.00 0.00
10:53 am 10:53 Cloudy 55 12.8 46 7.8 72 72 W 7 11 29.85 1011 10 16 0.00 0.00
11:07 am 11:07 Cloudy 56 13.3 46 7.8 70 70 WNW 9 15 29.86 1011 10 16 0.00 0.00
11:42 am 11:42 Cloudy 57 13.9 46 7.8 67 67 W 7 11 29.86 1011 10 16 0.00 0.00
11:51 am 11:51 Cloudy 55 13 46 8 72 72 W 8 13 29.85 1011 10 16 0.00 0.00
11:53 am 11:53 Cloudy 57 13.9 46 7.8 67 67 W 8 13 29.85 1011 10 16 0.00 0.00
12:02 pm 12:02 Cloudy 57 13.9 46 7.8 67 67 W 7 11 29.85 1011 10 16 0.00 0.00
12:53 pm 12:53 Cloudy 58 14.4 46 7.8 65 65 WNW 8 13 29.84 1010 10 16 0.00 0.00
1:53 pm 13:53 Cloudy 59 15 46 7.8 62 62 WNW 12 19 29.83 1010 10 16 0.00 0.00
2:53 pm 14:53 Partly Cloudy 60 15.6 46 7.8 60 60 NW 9 15 29.83 1010 10 16 0.00 0.00
3:53 pm 15:53 Partly Cloudy 60 15.6 45 7.2 58 58 WNW 7 11 29.84 1011 10 16 0.00 0.00
4:53 pm 16:53 Sunny 58 14.4 44 6.7 60 60 NW 12 19 29.86 1011 10 16 0.00 0.00
5:53 pm 17:53 Mostly Clear 54 12.2 44 6.7 69 69 NNW 7 11 29.89 1012 10 16 0.00 0.00
6:53 pm 18:53 Clear 52 11.1 44 6.7 75 75 NNW 6 9 29.91 1013 10 16 0.00 0.00
7:53 pm 19:53 Clear 50 10 43 6.1 77 77 NNW 5 7 29.93 1013 10 16 0.00 0.00
8:53 pm 20:53 Clear 49 9.4 42 5.6 77 77 Calm 29.93 1014 10 16 0.00 0.00
9:53 pm 21:53 Mostly Cloudy 48 8.9 43 6.1 83 83 Calm 29.93 1014 10 16 0.00 0.00
10:53 pm 22:53 Mostly Cloudy 47 8.3 43 6.1 86 86 Calm 29.94 1014 10 16 0.00 0.00
11:53 pm 23:53 Mostly Cloudy 49 9.4 44 6.7 83 83 W 6 9 29.94 1014 10 16 0.00 0.00

Powered by AerisWeather